Topeka, KS

9:44 PM CDT on October 18, 2019 (GMT -0500)
Billard Municipal

Weather History for KTOP - August, 2019

Change the Weather History Date:

Wednesday, August 7, 2019

  Actual Average Record
Temperature  
Mean Temperature 76 °F 79 °F  
Max Temperature 83 °F 90 °F 110 °F (1934)
Min Temperature 68 °F 68 °F 49 °F (1989)
Degree Days  
Heating Degree Days 0 0  
Month to date heating degree days 0 0  
Since 1 June heating degree days 0 8  
Since 1 July heating degree days 0 0  
Cooling Degree Days 11 14  
Month to date cooling degree days 89 98  
Year to date cooling degree days 968 940  
Since 1 June cooling degree days 856 814  
Growing Degree Days 25 (Base 50)    
Moisture  
Dew Point 68 °F    
Average Humidity 78    
Maximum Humidity 90    
Minimum Humidity 65    
Precipitation  
Precipitation 0.85 in 0.13 in 2.63 in (1908)
Month to date precipitation 2.52 0.93  
Year to date precipitation 31.38 23.26  
Snow  
Snow 0.00 in 0.00 in T in (1923)
Month to date snowfall 0.0 0.0  
Year to date snowfall 18.5 11.3  
Since 1 July snowfall 0.0 0.0  
Snow Depth 0.00 in    
Sea Level Pressure  
Sea Level Pressure 29.90 in    
Wind  
Wind Speed 4 mph (ENE)    
Max Wind Speed 36 mph    
Max Gust Speed 53 mph    
Visibility 8 miles    
Events Rain , Thunderstorm    
T = Trace of Precipitation, MM = Missing Value Source: NWS Daily Summary

Daily Weather History Graph

Daily Weather History Graph

Search for Another Location

Airport or City:

Astronomy

Aug. 07, 2019 Rise Set
Actual Time 6:28 AM CDT 8:27 PM CDT
Civil Twilight 5:59 AM CDT 8:56 PM CDT
Nautical Twilight 5:23 AM CDT 9:32 PM CDT
Astronomical Twilight 4:44 AM CDT 10:10 PM CDT
Moon 1:58 PM CDT (8/7) 12:17 AM CDT (8/7)
Length of Visible Light 14h 57m
Length of Day
13h 59m
Waxing Crescent, 50% of the Moon is Illuminated
Aug 7
Waxing Crescent
Aug 7
First Quarter
Aug 15
Full
Aug 23
Last Quarter
Aug 30
New

Hourly Weather History & Observations

Time (CDT) Temp. Heat Index Dew Point Humidity Pressure Visibility Wind Dir Wind Speed Gust Speed Precip Events Conditions
12:53 AM 75.0 °F - 68.0 °F 79% 29.88 in 10.0 mi Calm Calm - N/A   Clear
1:53 AM 73.0 °F - 69.1 °F 87% 29.88 in 10.0 mi Calm Calm - N/A   Clear
2:53 AM 73.9 °F - 68.0 °F 82% 29.85 in 10.0 mi Calm Calm - N/A   Clear
3:53 AM 73.9 °F - 68.0 °F 82% 29.85 in 10.0 mi Calm Calm - N/A   Clear
4:53 AM 73.9 °F - 66.9 °F 79% 29.85 in 10.0 mi East 3.5 mph - N/A   Scattered Clouds
5:53 AM 73.0 °F - 68.0 °F 84% 29.82 in 10.0 mi East 4.6 mph - N/A   Scattered Clouds
6:16 AM 73.9 °F - 68.0 °F 82% 29.86 in 10.0 mi ENE 3.5 mph - N/A Thunderstorm Mostly Cloudy
6:41 AM 73.0 °F - 66.9 °F 81% 29.95 in 10.0 mi NNW 31.1 mph 48.3 mph 0.00 in Rain , Thunderstorm Light Thunderstorms and Rain
6:51 AM 71.6 °F - 64.4 °F 78% 29.98 in 7.0 mi NNW 28.8 mph 52.9 mph 0.00 in Rain , Thunderstorm Thunderstorms and Rain
6:53 AM 70.0 °F - 64.9 °F 84% 29.97 in 3.0 mi NW 29.9 mph 52.9 mph 0.01 in Rain , Thunderstorm Heavy Thunderstorms and Rain
6:56 AM 69.1 °F - 66.0 °F 90% 30.00 in 1.8 mi NW 32.2 mph 52.9 mph 0.06 in Rain , Thunderstorm Heavy Thunderstorms and Rain
7:12 AM 68.0 °F - 66.0 °F 93% 30.00 in 2.0 mi North 12.7 mph 39.1 mph 0.43 in Rain , Thunderstorm Heavy Thunderstorms and Rain
7:21 AM 69.1 °F - 66.0 °F 90% 29.99 in 4.0 mi NNE 12.7 mph - 0.48 in Rain , Thunderstorm Heavy Thunderstorms and Rain
7:28 AM 69.1 °F - 66.0 °F 90% 30.00 in 5.0 mi NE 15.0 mph 23.0 mph 0.50 in Rain , Thunderstorm Rain
7:46 AM 69.1 °F - 66.0 °F 90% 29.98 in 6.0 mi NE 8.1 mph - 0.56 in Rain , Thunderstorm Thunderstorms and Rain
7:53 AM 69.1 °F - 66.0 °F 90% 29.96 in 6.0 mi NNE 8.1 mph - 0.58 in Rain , Thunderstorm Thunderstorms and Rain
8:12 AM 69.1 °F - 66.0 °F 90% 29.97 in 5.0 mi ENE 5.8 mph - 0.06 in Rain Rain
8:53 AM 69.1 °F - 66.0 °F 90% 29.95 in 10.0 mi East 4.6 mph - 0.13 in Rain Light Rain
9:53 AM 69.1 °F - 66.0 °F 90% 29.91 in 10.0 mi SSW 8.1 mph - 0.10 in Rain Light Rain
10:16 AM 69.1 °F - 66.0 °F 90% 29.90 in 10.0 mi South 9.2 mph - 0.00 in Thunderstorm Clear
10:31 AM 69.1 °F - 66.0 °F 90% 29.84 in 7.0 mi SSE 16.1 mph - 0.01 in Rain Light Rain
10:53 AM 70.0 °F - 66.9 °F 90% 29.90 in 10.0 mi NNE 4.6 mph - 0.02 in   Partly Cloudy
11:53 AM 70.0 °F - 66.9 °F 90% 29.90 in 10.0 mi WSW 4.6 mph - 0.00 in Rain Light Rain
12:53 PM 73.9 °F - 68.0 °F 82% 29.84 in 10.0 mi SE 5.8 mph - 0.01 in   Clear
1:53 PM 80.1 °F 82.9 °F 69.1 °F 69% 29.84 in 10.0 mi Calm Calm - N/A   Clear
2:53 PM 81.0 °F 83.8 °F 68.0 °F 65% 29.84 in 10.0 mi Calm Calm - N/A   Clear
3:53 PM 81.0 °F 83.8 °F 68.0 °F 65% 29.86 in 10.0 mi SW 3.5 mph - N/A   Clear
4:53 PM 82.9 °F 87.5 °F 71.1 °F 67% 29.86 in 10.0 mi SW 3.5 mph - N/A   Clear
5:53 PM 82.0 °F 85.9 °F 70.0 °F 67% 29.84 in 10.0 mi Calm Calm - N/A   Clear
6:53 PM 82.9 °F 86.5 °F 69.1 °F 63% 29.83 in 10.0 mi SSW 3.5 mph - N/A   Clear
7:53 PM 79.0 °F - 71.1 °F 77% 29.84 in 10.0 mi South 5.8 mph - N/A   Clear
8:53 PM 75.9 °F - 70.0 °F 82% 29.86 in 10.0 mi South 3.5 mph - N/A   Clear
9:53 PM 73.0 °F - 70.0 °F 90% 29.88 in 10.0 mi Calm Calm - N/A   Clear
10:53 PM 73.0 °F - 69.1 °F 87% 29.88 in 10.0 mi Calm Calm - N/A   Clear
11:53 PM 71.1 °F - 68.0 °F 90% 29.86 in 1.8 mi Calm Calm - N/A   Partly Cloudy